GLONASS-K 1

Last updated on Jan. 20, 2021, 6:21 a.m. UTC

1 37372U 11009A   21019.59134506 -.00000049  00000-0  00000-0 0  9993
2 37372  65.9153  20.5384 0010565 234.3379 333.1938  2.13107399 77013
UTC
Height (km)
Latitude
Longitude
Inclination
Orbital Period
UTC large
Height (km)
Speed (km/s)
/
Latitude / Longitude
Inclination (degrees)
Orbital Period (minutes)
Azimuth
Elevation
Range (km)
Doppler Factor
iOS Compass Heading
iOS Angle

Next 30 passes for location: Hong Kong

Rise time Rise Azimuth (degrees) Set time Set Azimuth (degrees) Duration Max altitude (degrees)

No matching passes for this satellites